Location: Kapuskasing
(49.3803°N, 82.4001°W)
Time: 13:28:06
(UTC-04:00)

BlueWalker 3 - Visible Passes

Search period start: 07 October 2024 00:00
Search period end: 17 October 2024 00:00
Orbit: 473 x 485 km, 53.2° (Epoch: 06 October)

Date Brightness Start Highest point End Pass type
(mag) Time Alt. Az. Time Alt. Az. Time Alt. Az.
07 Oct 4.4 04:49:56 15° ESE 04:49:56 15° ESE 04:51:33 10° E visible
07 Oct 1.9 06:24:09 18° SW 06:26:44 72° SSE 06:30:26 10° ENE visible
08 Oct 5.1 04:23:05 10° E 04:23:05 10° E 04:23:06 10° E visible
08 Oct 2.0 05:57:17 38° SW 05:58:30 66° SSE 06:02:12 10° ENE visible
09 Oct 2.1 05:30:19 60° SE 05:30:19 60° SE 05:33:54 10° ENE visible
09 Oct 2.3 07:04:42 10° W 07:08:20 50° N 07:11:57 10° ENE visible
10 Oct 3.4 05:03:16 34° E 05:03:16 34° E 05:05:35 10° ENE visible
10 Oct 2.2 06:37:28 18° W 06:40:00 52° NNW 06:43:38 10° ENE visible
11 Oct 4.6 04:36:08 18° ENE 04:36:08 18° ENE 04:37:12 10° ENE visible
11 Oct 2.1 06:10:19 34° WNW 06:11:37 54° NNW 06:15:16 10° ENE visible
12 Oct 2.0 05:43:07 56° NNW 05:43:13 57° NNW 05:46:52 10° ENE visible
13 Oct 3.1 05:15:51 40° NE 05:15:51 40° NE 05:18:26 10° ENE visible
13 Oct 2.5 06:50:02 13° WNW 06:53:07 45° N 06:56:42 10° E visible
14 Oct 4.3 04:48:33 22° ENE 04:48:33 22° ENE 04:49:58 10° ENE visible
14 Oct 2.5 06:22:44 24° WNW 06:24:37 45° N 06:28:12 10° ENE visible
15 Oct 5.2 04:21:13 12° ENE 04:21:13 12° ENE 04:21:28 10° ENE visible
15 Oct 2.5 05:55:24 39° NNW 05:56:06 44° N 05:59:40 10° ENE visible
16 Oct 2.9 05:28:03 41° NNE 05:28:03 41° NNE 05:31:05 10° ENE visible
16 Oct 1.9 07:02:13 11° WNW 07:05:48 76° NNE 07:09:30 10° ESE visible
